Location: Cercedilla
(40.7379°N, 4.0638°W)
Time: 03:03:08
(UTC+00:00)

NOSS 3-1 (C) - Pass Details

Date: 07 June 2020
Orbit: 752 x 1456 km, 63.4° (Epoch: 15 June)

Event Time Altitude Azimuth Distance (km) Brightness Sun altitude
Rises 02:58:23 0° 320° (NW) 4,072 6.9 -16.0°
Reaches altitude 10° 03:01:05 10° 314° (NW) 3,199 6.2 -15.7°
Maximum altitude 03:08:31 47° 244° (WSW) 1,741 4.4 -14.8°
Drops below altitude 10° 03:16:46 10° 175° (S) 3,539 6.0 -13.8°
Sets 03:19:56 0° 170° (S) 4,537 6.6 -13.3°
